Volver al catálogo

CZ-2D DEB

ActivoSSO
NORAD 43402·DEBRIS·🇨🇳 China

Lanzado Sep 29, 2012 desde Jiuquan Satellite Launch Center

Loading…

Próximos Pases (próximas 24 horas)

TLE

EnvejeciendoSource: Space-Track

Época: Sep 9, 2026, 11:43 UTC

1 43402U 12052B   26252.48837445  .00002191  00000-0  55583-3 0  9995
2 43402  98.0823 344.6012 0204226 150.5893 210.6975 14.39959301666903

Sigue CZ-2D DEB en tiempo real con AllMySat

Download on the App Store